Location: Moscow
(55.7500°N, 37.5830°E)
Time: 09:38:49
(UTC+03:00)

Transit 4A - Pass Details

Date: 09 December 2021
Orbit: 863 x 981 km, 66.8° (Epoch: 23 January)

Event Time Altitude Azimuth Distance (km) Brightness Sun altitude
Rises 16:56:05 0° 148° (SSE) 3,471 10.9 -7.5°
Reaches altitude 10° 17:00:35 10° 116° (ESE) 2,565 9.9 -8.1°
Maximum altitude 17:02:18 11° 99° (E) 2,485 9.7 -8.3°
Drops below altitude 10° 17:04:01 10° 82° (E) 2,592 9.6 -8.5°
Enters shadow 17:04:35 - 77° (ENE) 2,667 9.7 -8.6°
